"startDT [UTC]","vpos","CH4 [ppm]","stdev(CH4) [ppm]","CO2 [ppm]","stdev(CO2) [ppm]","H2O_reported [%]","stdev(H2O_reported)","CavityPressure [torr]","CavityTemp [C]","OutletValve","CH4_dry [ppm]","CO2_dry [ppm]","DasTemp [C]","EtalonTemp [C]","WarmBoxTemp [C]","MPVPosition","T_ECpre [C]","T_EC1 [C]","T_EC2 [C]","p_inlet [hPa]","p_in [hPa]","p_out [hPa]","T_inlet [C]","RH_inlet [%]","dwpt_inlet [C]","T_vent [C]","RH_vent [%]","dwpt_vent [C]","flow_vent [l min-1]","flow_inlet [l min-1]","dwpt_sample [C]","T_room [C]"
2015-04-07 00:00:00,3.0,1.88022,0.01548,399.487,2.557,0.0312,0.0443,139.963,45.001,31090.60021,1.88270,399.813,34.723,45.068,45.000,0.00,0.09,-272.72,-272.78,10,489,-4,22.3,4.1,-21.5,22.4,4.1,-21.5,5.73,1.53,-16.1,27.4
2015-04-07 00:01:00,3.0,1.87644,0.00043,397.212,0.068,0.0083,0.0023,139.998,45.002,31021.90265,1.87658,397.257,34.829,45.068,45.000,0.00,0.09,-272.73,-272.78,9,488,-3,22.3,4.1,-21.5,22.4,4.1,-21.5,5.73,1.63,-16.1,27.4
2015-04-07 00:02:00,3.0,1.87643,0.00041,397.270,0.106,0.0073,0.0017,140.000,45.001,31003.19914,1.87661,397.298,34.908,45.068,45.000,0.00,0.09,-272.72,-272.77,10,489,-4,22.4,4.1,-21.4,22.4,4.1,-21.5,5.73,1.66,-16.1,27.5
2015-04-07 00:03:00,3.0,1.87619,0.00048,397.495,0.052,0.0067,0.0013,139.999,45.001,30991.43889,1.87629,397.526,34.980,45.068,45.001,0.00,0.09,-272.72,-272.78,10,489,-4,22.4,4.1,-21.5,22.4,4.0,-21.6,5.73,1.67,-16.0,27.5
2015-04-07 00:04:00,3.0,1.87606,0.00029,397.588,0.030,0.0060,0.0023,139.997,45.001,30979.46275,1.87617,397.615,35.049,45.068,45.001,0.00,0.09,-272.73,-272.78,10,489,-4,22.4,4.1,-21.5,22.5,4.0,-21.6,5.73,1.69,-16.0,27.6
2015-04-07 00:05:00,3.0,1.87639,0.00041,397.598,0.034,0.0052,0.0016,139.998,45.001,30971.55839,1.87647,397.623,35.120,45.068,45.001,0.00,0.09,-272.72,-272.77,10,489,-4,22.5,4.0,-21.5,22.5,4.0,-21.6,5.73,1.70,-16.0,27.7
2015-04-07 00:06:00,3.0,1.87601,0.00030,397.579,0.032,0.0038,0.0025,140.001,45.001,30968.48627,1.87612,397.599,35.181,45.068,45.001,0.00,0.09,-272.72,-272.78,10,490,-4,22.5,4.0,-21.5,22.5,4.0,-21.6,5.73,1.69,-16.0,27.7
2015-04-07 00:07:00,3.0,1.87612,0.00041,397.605,0.038,0.0024,0.0015,140.001,45.001,30963.54607,1.87611,397.616,35.249,45.068,45.001,0.00,0.09,-272.72,-272.78,10,490,-4,22.6,4.0,-21.5,22.6,4.0,-21.6,5.73,1.69,-16.0,27.8
2015-04-07 00:08:00,3.0,1.87609,0.00039,397.621,0.023,0.0022,0.0018,139.999,45.001,30960.05922,1.87618,397.631,35.310,45.068,45.001,0.00,0.09,-272.72,-272.78,10,490,-4,22.6,4.0,-21.5,22.6,4.0,-21.6,5.73,1.68,-16.0,27.9
2015-04-07 00:09:00,3.0,1.87608,0.00045,397.589,0.024,0.0023,0.0017,140.000,45.001,30958.11071,1.87608,397.600,35.369,45.068,45.001,0.00,0.09,-272.72,-272.77,10,491,-4,22.7,4.0,-21.5,22.6,4.0,-21.5,5.73,1.67,-16.0,28.0
2015-04-07 00:10:00,3.0,1.87637,0.00029,397.616,0.031,0.0017,0.0015,140.000,45.001,30955.92185,1.87642,397.624,35.376,45.068,45.001,0.00,0.09,-272.72,-272.78,10,491,-4,22.7,4.0,-21.5,22.7,3.9,-21.6,5.73,1.67,-16.0,28.0
2015-04-07 00:11:00,3.0,1.87626,0.00040,397.621,0.029,0.0010,0.0016,139.999,45.001,30955.68927,1.87628,397.627,35.440,45.068,45.001,0.00,0.09,-272.72,-272.78,10,491,-4,22.8,4.0,-21.5,22.7,3.9,-21.6,5.73,1.66,-15.9,28.1
2015-04-07 00:12:00,3.0,1.87613,0.00030,397.626,0.036,0.0014,0.0018,140.000,45.001,30957.73276,1.87616,397.631,35.514,45.068,45.001,0.00,0.09,-272.72,-272.77,10,491,-4,22.8,4.0,-21.5,22.8,3.9,-21.6,5.73,1.65,-15.9,28.2
2015-04-07 00:13:00,3.0,1.87622,0.00033,397.621,0.025,0.0012,0.0019,139.999,45.001,30958.79632,1.87623,397.626,35.586,45.068,45.001,0.00,0.09,-272.72,-272.77,10,492,-4,22.9,4.0,-21.4,22.8,3.9,-21.6,5.73,1.65,-15.9,28.2
2015-04-07 00:14:00,3.0,1.87618,0.00033,397.626,0.026,0.0006,0.0014,140.000,45.001,30959.77909,1.87622,397.630,35.659,45.068,45.000,0.00,0.09,-272.73,-272.78,10,492,-4,22.9,4.0,-21.3,22.9,3.9,-21.5,5.73,1.64,-15.9,28.3
2015-04-07 00:15:00,3.0,1.87633,0.00022,397.634,0.032,0.0007,0.0014,139.999,45.001,30960.69519,1.87633,397.637,35.733,45.067,45.000,0.00,0.09,-272.72,-272.77,9,492,-4,23.0,4.0,-21.3,22.9,3.9,-21.5,5.73,1.64,-15.9,28.4
2015-04-07 00:16:00,3.0,1.87630,0.00042,397.632,0.029,0.0006,0.0016,140.003,45.001,30964.19976,1.87631,397.634,35.791,45.067,45.000,0.00,0.09,-272.72,-272.77,9,492,-4,23.0,4.0,-21.3,22.9,4.0,-21.4,5.73,1.64,-15.9,28.4
2015-04-07 00:17:00,3.0,1.87625,0.00033,397.617,0.034,-0.0000,0.0016,140.000,45.001,30966.20408,1.87624,397.618,35.849,45.067,45.000,0.00,0.09,-272.72,-272.78,9,493,-4,23.1,3.9,-21.3,23.0,4.0,-21.4,5.73,1.65,-15.8,28.5
2015-04-07 00:18:00,3.0,1.87638,0.00036,397.627,0.032,0.0005,0.0018,140.000,45.001,30968.62441,1.87640,397.627,35.883,45.067,45.000,0.00,0.09,-272.72,-272.77,9,493,-4,23.1,4.0,-21.3,23.1,4.0,-21.3,5.73,1.64,-15.8,28.6
2015-04-07 00:19:00,3.0,1.87612,0.00027,397.633,0.037,0.0004,0.0019,139.999,45.001,30971.17961,1.87614,397.637,35.888,45.067,45.000,0.00,0.09,-272.71,-272.77,9,493,-4,23.2,4.0,-21.2,23.1,3.9,-21.4,5.73,1.64,-15.8,28.6
2015-04-07 00:20:00,0.0,1.91948,0.01249,405.112,2.685,0.1173,0.0443,140.064,45.001,32198.61034,1.92002,405.538,35.876,45.067,45.000,0.00,0.09,-272.71,-272.78,5,683,-4,23.2,3.9,-21.4,23.2,3.9,-21.4,5.73,1.66,-15.8,28.7
2015-04-07 00:21:00,0.0,1.92364,0.00037,405.185,0.089,0.1393,0.0016,140.001,45.000,32267.52009,1.92632,405.872,35.841,45.066,44.999,0.00,0.09,-272.72,-272.78,3,683,-4,23.3,3.9,-21.4,23.2,3.9,-21.4,5.73,1.97,-15.8,28.8
2015-04-07 00:22:00,0.0,1.92332,0.00030,404.994,0.060,0.1400,0.0016,140.002,45.000,32288.99496,1.92599,405.677,35.756,45.066,44.999,0.00,0.09,-272.71,-272.77,4,683,-4,23.2,3.9,-21.4,23.2,3.9,-21.4,5.73,1.67,-15.8,28.8
2015-04-07 00:23:00,0.0,1.92349,0.00034,404.857,0.096,0.1410,0.0018,140.002,44.999,32305.85451,1.92614,405.551,35.648,45.066,44.999,0.00,0.09,-272.71,-272.77,4,683,-4,23.2,3.9,-21.4,23.2,3.9,-21.4,5.73,1.87,-15.8,28.7
2015-04-07 00:24:00,0.0,1.92340,0.00033,404.878,0.102,0.1403,0.0016,140.001,44.998,32320.39135,1.92607,405.557,35.534,45.065,44.998,0.00,0.09,-272.72,-272.78,4,684,-4,23.1,3.9,-21.4,23.1,3.9,-21.4,5.73,1.82,-15.8,28.6
2015-04-07 00:25:00,0.0,1.92349,0.00030,404.958,0.085,0.1399,0.0016,140.002,44.998,32331.45250,1.92615,405.643,35.390,45.065,44.998,0.00,0.09,-272.71,-272.78,4,684,-4,23.1,3.9,-21.5,23.1,3.9,-21.4,5.73,1.74,-15.8,28.6
2015-04-07 00:26:00,0.0,1.92369,0.00025,404.952,0.048,0.1393,0.0012,139.997,44.997,32336.64089,1.92633,405.633,35.229,45.065,44.998,0.00,0.09,-272.72,-272.77,4,684,-4,23.1,3.9,-21.5,23.0,3.9,-21.4,5.73,1.90,-15.8,28.5
2015-04-07 00:27:00,0.0,1.92354,0.00048,404.824,0.059,0.1406,0.0013,139.998,44.997,32341.19633,1.92621,405.512,35.030,45.065,44.998,0.00,0.09,-272.72,-272.78,3,685,-4,23.1,3.9,-21.5,23.0,3.9,-21.5,5.73,1.70,-15.8,28.3
2015-04-07 00:28:00,0.0,1.92368,0.00029,404.775,0.071,0.1402,0.0012,140.001,44.997,32345.59639,1.92634,405.462,34.793,45.066,44.999,0.00,0.09,-272.72,-272.77,5,685,-4,23.0,3.9,-21.5,23.0,3.9,-21.4,5.73,1.89,-15.8,28.1
2015-04-07 00:29:00,0.0,1.92353,0.00036,404.648,0.046,0.1396,0.0018,140.000,44.997,32349.01220,1.92616,405.328,34.589,45.066,44.999,0.00,0.09,-272.71,-272.77,3,686,-4,23.1,3.9,-21.4,23.0,3.9,-21.4,5.73,1.75,-15.8,27.9
2015-04-07 00:30:00,0.0,1.92339,0.00037,404.648,0.073,0.1405,0.0018,139.999,44.997,32349.46738,1.92608,405.334,34.361,45.067,45.000,0.00,0.09,-272.72,-272.77,5,686,-4,23.1,3.9,-21.5,22.9,3.9,-21.5,5.73,1.80,-15.8,27.8
2015-04-07 00:31:00,0.0,1.92363,0.00032,404.764,0.133,0.1414,0.0022,140.001,44.997,32349.54931,1.92629,405.447,34.182,45.067,45.000,0.00,0.09,-272.72,-272.77,4,687,-4,23.0,3.9,-21.5,22.9,3.9,-21.5,5.73,1.90,-15.8,27.7
2015-04-07 00:32:00,0.0,1.92408,0.00023,405.033,0.138,0.1418,0.0028,139.997,44.997,32347.09049,1.92676,405.728,33.999,45.067,45.000,0.00,0.09,-272.71,-272.77,3,688,-4,23.1,3.9,-21.4,22.9,4.0,-21.3,5.73,1.62,-15.8,27.6
2015-04-07 00:33:00,0.0,1.92389,0.00040,404.841,0.089,0.1426,0.0018,139.999,44.996,32345.59933,1.92662,405.539,33.795,45.067,45.000,0.00,0.09,-272.72,-272.77,5,688,-4,23.0,3.9,-21.4,22.9,4.0,-21.4,5.73,1.97,-15.8,27.4
2015-04-07 00:34:00,0.0,1.92362,0.00036,404.738,0.048,0.1428,0.0017,140.000,44.996,32343.79306,1.92633,405.434,33.606,45.067,44.999,0.00,0.09,-272.71,-272.78,4,688,-4,23.0,4.0,-21.3,22.9,4.0,-21.4,5.73,1.78,-15.8,27.2
2015-04-07 00:35:00,0.0,1.92371,0.00027,404.950,0.085,0.1428,0.0020,140.000,44.996,32339.07492,1.92642,405.645,33.408,45.066,44.999,0.00,0.09,-272.72,-272.77,3,689,-4,23.0,4.0,-21.3,22.9,3.9,-21.5,5.73,1.67,-15.8,27.1
2015-04-07 00:36:00,0.0,1.92363,0.00038,404.921,0.113,0.1420,0.0012,139.998,44.997,32332.45328,1.92634,405.617,33.241,45.066,44.999,0.00,0.09,-272.72,-272.78,4,689,-4,23.0,4.0,-21.3,22.9,3.9,-21.5,5.73,2.01,-15.9,27.0
2015-04-07 00:37:00,0.0,1.92384,0.00034,404.702,0.070,0.1439,0.0016,140.000,44.997,32327.27285,1.92655,405.402,33.097,45.067,44.999,0.00,0.09,-272.71,-272.78,5,688,-4,22.9,4.0,-21.3,22.8,4.0,-21.5,5.73,1.66,-15.9,26.9
2015-04-07 00:38:00,0.0,1.92353,0.00041,405.000,0.152,0.1428,0.0019,140.000,44.997,32323.60299,1.92624,405.690,32.961,45.067,45.000,0.00,0.09,-272.72,-272.78,3,689,-4,22.9,4.0,-21.3,22.8,4.0,-21.5,5.73,1.86,-15.9,26.9
2015-04-07 00:39:00,0.0,1.92336,0.00044,405.249,0.148,0.1423,0.0015,140.001,44.998,32321.77597,1.92611,405.946,32.876,45.067,45.000,0.00,0.09,-272.72,-272.77,5,689,-4,22.9,4.0,-21.4,22.7,4.0,-21.5,5.73,1.86,-15.9,26.9
2015-04-07 00:40:00,0.0,1.92321,0.00037,405.298,0.057,0.1421,0.0016,139.999,44.998,32319.71160,1.92590,405.990,32.814,45.068,45.000,0.00,0.09,-272.72,-272.77,4,689,-4,22.8,4.0,-21.4,22.7,4.0,-21.6,5.73,1.69,-15.9,26.8
2015-04-07 00:41:00,0.0,1.92322,0.00038,405.377,0.070,0.1427,0.0017,139.997,44.998,32316.30139,1.92593,406.073,32.753,45.068,45.000,0.00,0.09,-272.72,-272.78,4,689,-4,22.8,4.0,-21.4,22.6,4.0,-21.6,5.73,1.97,-15.9,26.9
2015-04-07 00:42:00,0.0,1.92327,0.00048,405.444,0.144,0.1413,0.0016,139.997,44.999,32312.41020,1.92597,406.131,32.744,45.068,45.000,0.00,0.09,-272.72,-272.77,5,688,-4,22.7,4.0,-21.5,22.6,4.0,-21.6,5.73,1.64,-16.0,26.9
2015-04-07 00:43:00,0.0,1.92309,0.00036,405.993,0.188,0.1416,0.0015,140.002,44.999,32315.62112,1.92576,406.671,32.715,45.067,44.999,0.00,0.09,-272.72,-272.77,4,688,-4,22.7,4.0,-21.5,22.5,4.0,-21.6,5.73,2.00,-16.0,26.9
2015-04-07 00:44:00,0.0,1.92348,0.00035,406.825,0.230,0.1415,0.0017,140.000,44.999,32311.28119,1.92612,407.514,32.692,45.067,44.999,0.00,0.09,-272.72,-272.78,5,688,-4,22.6,4.0,-21.5,22.5,4.0,-21.6,5.73,1.64,-16.0,26.8
2015-04-07 00:45:00,0.0,1.92380,0.00044,406.827,0.138,0.1424,0.0015,139.997,44.999,32308.25592,1.92652,407.517,32.688,45.067,44.999,0.00,0.09,-272.73,-272.78,4,688,-4,22.5,4.0,-21.5,22.5,4.0,-21.6,5.73,1.98,-16.0,26.8
2015-04-07 00:46:00,0.0,1.92375,0.00048,406.905,0.288,0.1429,0.0011,140.000,45.000,32310.38126,1.92647,407.619,32.725,45.067,45.000,0.00,0.09,-272.71,-272.77,5,687,-4,22.5,4.0,-21.5,22.5,4.0,-21.6,5.73,1.73,-16.0,26.8
2015-04-07 00:47:00,0.0,1.92359,0.00049,406.145,0.190,0.1427,0.0008,140.001,45.000,32308.47786,1.92633,406.847,32.801,45.068,45.001,0.00,0.09,-272.72,-272.78,4,687,-4,22.5,4.0,-21.5,22.5,4.0,-21.6,5.73,1.81,-16.0,26.8
2015-04-07 00:48:00,0.0,1.92309,0.00033,405.986,0.257,0.1414,0.0017,140.001,45.001,32311.18981,1.92574,406.670,32.917,45.069,45.001,0.00,0.09,-272.73,-272.78,6,688,-5,22.5,4.0,-21.5,22.5,4.0,-21.6,5.73,1.94,-16.0,26.9
2015-04-07 00:49:00,0.0,1.92377,0.00025,406.356,0.241,0.1425,0.0022,140.000,45.001,32312.86958,1.92646,407.073,33.043,45.069,45.001,0.00,0.09,-272.72,-272.78,4,686,-4,22.5,4.0,-21.6,22.5,4.0,-21.5,5.73,1.66,-16.0,26.9
2015-04-07 00:50:00,0.0,1.92375,0.00022,406.556,0.314,0.1411,0.0019,140.002,45.002,32315.91662,1.92644,407.221,33.188,45.069,45.002,0.00,0.09,-272.72,-272.78,5,686,-4,22.5,4.0,-21.5,22.5,4.0,-21.6,5.73,1.91,-16.0,26.9
2015-04-07 00:51:00,0.0,1.92324,0.00020,406.145,0.647,0.1412,0.0019,140.001,45.002,32320.71644,1.92592,406.860,33.310,45.069,45.001,0.00,0.09,-272.73,-272.78,4,686,-4,22.5,4.0,-21.5,22.5,4.1,-21.5,5.73,1.88,-16.0,27.0
2015-04-07 00:52:00,0.0,1.92349,0.00038,405.891,0.189,0.1408,0.0015,139.999,45.002,32322.08767,1.92618,406.582,33.439,45.069,45.001,0.00,0.09,-272.72,-272.78,4,685,-4,22.5,4.0,-21.5,22.5,4.0,-21.5,5.73,1.67,-16.0,27.0
2015-04-07 00:53:00,0.0,1.92343,0.00031,406.050,0.238,0.1410,0.0021,139.997,45.003,32324.08972,1.92609,406.744,33.578,45.069,45.001,0.00,0.09,-272.72,-272.78,5,685,-4,22.6,4.0,-21.5,22.5,4.0,-21.5,5.73,1.94,-16.0,27.1
2015-04-07 00:54:00,0.0,1.92362,0.00031,405.816,0.159,0.1412,0.0015,140.000,45.002,32328.28698,1.92629,406.505,33.718,45.069,45.001,0.00,0.09,-272.73,-272.78,4,685,-4,22.6,4.0,-21.5,22.5,4.0,-21.5,5.73,1.85,-16.0,27.2
2015-04-07 00:55:00,0.0,1.92360,0.00037,405.923,0.256,0.1406,0.0016,140.003,45.002,32332.21373,1.92628,406.609,33.866,45.069,45.001,0.00,0.09,-272.72,-272.78,5,685,-4,22.6,4.0,-21.5,22.5,4.0,-21.4,5.73,1.68,-16.0,27.2
2015-04-07 00:56:00,0.0,1.92361,0.00041,405.571,0.245,0.1409,0.0013,140.000,45.002,32337.00279,1.92628,406.266,33.995,45.068,45.000,0.00,0.09,-272.73,-272.77,4,685,-4,22.6,4.0,-21.6,22.6,4.0,-21.4,5.73,1.96,-16.0,27.2
2015-04-07 00:57:00,0.0,1.92400,0.00027,405.558,0.090,0.1409,0.0017,140.004,45.004,32342.89340,1.92665,406.248,34.121,45.068,45.000,0.00,0.09,-272.72,-272.77,4,685,-4,22.6,4.0,-21.5,22.6,4.0,-21.4,5.73,1.83,-16.0,27.3
2015-04-07 00:58:00,0.0,1.92404,0.00035,405.258,0.117,0.1423,0.0015,139.999,45.004,32345.68518,1.92673,405.961,34.243,45.068,45.000,0.00,0.09,-272.72,-272.78,2,685,-5,22.6,4.0,-21.4,22.6,4.0,-21.4,5.73,1.68,-16.0,27.3
2015-04-07 00:59:00,0.0,1.92370,0.00031,404.794,0.095,0.1421,0.0017,140.001,45.004,32351.10714,1.92642,405.494,34.377,45.068,45.000,0.00,0.09,-272.72,-272.77,3,683,-2,22.7,4.0,-21.4,22.6,4.0,-21.4,5.73,1.96,-16.0,27.4
2015-04-07 01:00:00,0.0,1.92383,0.00046,404.787,0.077,0.1423,0.0013,139.998,45.003,32353.17859,1.92651,405.477,34.483,45.068,45.000,0.00,0.09,-272.72,-272.77,5,684,-4,22.7,4.0,-21.4,22.6,4.0,-21.4,5.73,1.83,-16.0,27.4
2015-04-07 01:01:00,0.0,1.92366,0.00037,404.890,0.085,0.1413,0.0015,139.998,45.002,32356.54690,1.92636,405.582,34.588,45.068,45.000,0.00,0.09,-272.72,-272.79,5,684,-4,22.7,4.0,-21.4,22.7,4.0,-21.4,5.73,1.69,-16.0,27.5
2015-04-07 01:02:00,0.0,1.92354,0.00030,404.927,0.107,0.1418,0.0018,140.001,45.002,32358.74189,1.92623,405.613,34.682,45.068,45.000,0.00,0.09,-272.72,-272.78,4,684,-4,22.7,4.0,-21.5,22.7,4.0,-21.4,5.73,1.95,-16.0,27.6
2015-04-07 01:03:00,0.0,1.92364,0.00040,405.224,0.073,0.1412,0.0013,139.997,45.001,32361.15116,1.92634,405.913,34.777,45.068,45.000,0.00,0.09,-272.71,-272.77,5,684,-4,22.7,4.0,-21.5,22.7,4.0,-21.4,5.73,1.84,-15.9,27.6
2015-04-07 01:04:00,0.0,1.92342,0.00040,404.996,0.169,0.1410,0.0016,140.000,45.001,32365.46608,1.92609,405.691,34.859,45.068,45.001,0.00,0.09,-272.72,-272.78,4,684,-4,22.8,4.0,-21.5,22.7,4.0,-21.4,5.73,1.68,-16.0,27.7
2015-04-07 01:05:00,0.0,1.92347,0.00034,405.100,0.156,0.1418,0.0015,140.001,45.001,32367.37244,1.92619,405.787,34.951,45.068,45.001,0.00,0.09,-272.72,-272.78,5,683,-4,22.8,4.0,-21.4,22.7,4.0,-21.4,5.73,1.93,-15.9,27.7
2015-04-07 01:06:00,0.0,1.92375,0.00039,405.286,0.089,0.1416,0.0015,139.999,45.001,32367.63472,1.92639,405.973,35.037,45.068,45.001,0.00,0.09,-272.72,-272.78,5,683,-4,22.8,4.0,-21.4,22.8,4.0,-21.4,5.73,1.88,-15.9,27.8
2015-04-07 01:07:00,0.0,1.92379,0.00044,405.401,0.110,0.1416,0.0017,140.002,45.002,32371.17428,1.92645,406.093,35.121,45.068,45.001,0.00,0.09,-272.72,-272.78,4,683,-4,22.8,4.0,-21.4,22.8,4.0,-21.4,5.73,1.68,-15.9,27.8
2015-04-07 01:08:00,0.0,1.92392,0.00040,405.581,0.239,0.1410,0.0020,139.998,45.001,32371.94998,1.92660,406.259,35.197,45.068,45.001,0.00,0.09,-272.73,-272.78,5,683,-4,22.8,4.0,-21.5,22.8,4.0,-21.4,5.73,1.87,-15.9,27.9
2015-04-07 01:09:00,0.0,1.92375,0.00045,405.995,0.266,0.1415,0.0011,139.998,45.001,32375.43502,1.92646,406.699,35.270,45.068,45.001,0.00,0.09,-272.72,-272.77,4,683,-4,22.9,4.0,-21.5,22.8,4.0,-21.3,5.73,1.93,-15.9,27.9
2015-04-07 01:10:00,0.0,1.92371,0.00038,405.417,0.141,0.1399,0.0016,140.003,45.001,32379.59136,1.92635,406.097,35.337,45.068,45.001,0.00,0.09,-272.72,-272.77,4,683,-4,22.8,3.9,-21.6,22.9,4.0,-21.3,5.73,1.70,-15.9,28.0
2015-04-07 01:11:00,0.0,1.92386,0.00032,405.585,0.134,0.1406,0.0018,140.002,45.001,32378.26594,1.92653,406.277,35.410,45.068,45.001,0.00,0.09,-272.72,-272.78,5,683,-4,22.9,3.9,-21.5,22.9,4.0,-21.3,5.73,1.78,-15.9,28.0
2015-04-07 01:12:00,0.0,1.92373,0.00035,405.390,0.168,0.1407,0.0014,140.002,45.001,32379.90821,1.92641,406.075,35.480,45.068,45.001,0.00,0.09,-272.73,-272.77,4,683,-4,22.9,3.9,-21.5,22.9,4.0,-21.3,5.73,1.95,-15.8,28.1
2015-04-07 01:13:00,0.0,1.92369,0.00024,405.247,0.136,0.1414,0.0018,140.001,45.001,32380.87579,1.92634,405.944,35.540,45.068,45.000,0.00,0.09,-272.71,-272.77,4,683,-4,22.9,3.9,-21.5,22.9,4.0,-21.3,5.73,1.80,-15.8,28.1
2015-04-07 01:14:00,0.0,1.92331,0.00035,405.554,0.160,0.1404,0.0016,139.998,45.001,32383.08565,1.92601,406.236,35.604,45.068,45.001,0.00,0.09,-272.72,-272.77,5,683,-4,22.9,3.9,-21.5,22.9,4.0,-21.3,5.73,1.69,-15.8,28.2
2015-04-07 01:15:00,0.0,1.92367,0.00039,405.944,0.381,0.1417,0.0018,140.003,45.001,32385.36587,1.92634,406.632,35.644,45.067,45.000,0.00,0.09,-272.72,-272.78,4,683,-4,22.9,3.9,-21.5,22.9,4.0,-21.3,5.73,1.89,-15.8,28.2
2015-04-07 01:16:00,0.0,1.92367,0.00046,406.370,0.229,0.1418,0.0020,139.999,45.001,32390.89448,1.92633,407.048,35.654,45.067,45.000,0.00,0.09,-272.71,-272.77,4,683,-4,22.9,4.0,-21.4,23.0,4.0,-21.3,5.73,1.90,-15.8,28.2
2015-04-07 01:17:00,0.0,1.92381,0.00046,406.873,0.192,0.1414,0.0015,139.999,45.000,32391.27484,1.92653,407.565,35.627,45.066,44.999,0.00,0.09,-272.71,-272.77,5,683,-4,22.9,4.0,-21.4,22.9,4.0,-21.3,5.73,1.64,-15.8,28.2
2015-04-07 01:18:00,0.0,1.92353,0.00033,406.771,0.230,0.1429,0.0015,140.000,45.000,32393.63545,1.92625,407.477,35.574,45.066,44.999,0.00,0.09,-272.72,-272.78,3,683,-4,22.8,4.0,-21.3,22.9,4.0,-21.4,5.73,1.96,-15.8,28.3
2015-04-07 01:19:00,0.0,1.92373,0.00037,406.861,0.195,0.1432,0.0013,139.998,44.999,32390.56702,1.92643,407.559,35.472,45.065,44.998,0.00,0.09,-272.72,-272.77,5,684,-4,22.8,4.0,-21.4,22.9,4.0,-21.4,5.73,1.73,-15.8,28.2
2015-04-07 01:20:00,0.0,1.92411,0.00028,406.303,0.249,0.1431,0.0018,140.001,44.998,32391.97221,1.92684,407.021,35.337,45.065,44.998,0.00,0.09,-272.71,-272.77,3,684,-4,22.8,4.0,-21.5,22.9,4.0,-21.4,5.73,1.83,-15.8,28.2
2015-04-07 01:21:00,0.0,1.92386,0.00028,406.341,0.409,0.1427,0.0011,139.997,44.998,32390.45415,1.92656,407.021,35.189,45.065,44.998,0.00,0.09,-272.72,-272.78,5,684,-4,22.8,4.0,-21.4,22.9,4.0,-21.3,5.73,1.84,-15.8,28.2
2015-04-07 01:22:00,0.0,1.92385,0.00042,406.584,0.122,0.1425,0.0014,140.001,44.998,32389.77735,1.92655,407.289,35.038,45.065,44.998,0.00,0.09,-272.72,-272.78,3,685,-4,22.8,4.0,-21.4,22.9,4.0,-21.3,5.73,1.75,-15.8,28.1
2015-04-07 01:23:00,0.0,1.92381,0.00032,406.415,0.264,0.1430,0.0010,140.002,44.997,32386.19118,1.92655,407.123,34.867,45.066,44.999,0.00,0.09,-272.72,-272.77,5,685,-4,22.8,4.0,-21.4,22.8,4.0,-21.4,5.73,1.88,-15.8,28.0
2015-04-07 01:24:00,0.0,1.92380,0.00035,405.973,0.280,0.1423,0.0012,140.002,44.997,32381.80468,1.92650,406.684,34.686,45.066,44.999,0.00,0.09,-272.72,-272.77,4,685,-4,22.7,4.0,-21.4,22.8,4.0,-21.5,5.73,1.73,-15.8,27.8
2015-04-07 01:25:00,0.0,1.92405,0.00030,405.645,0.112,0.1421,0.0016,140.002,44.997,32378.80793,1.92675,406.334,34.518,45.066,44.999,0.00,0.09,-272.72,-272.77,4,686,-4,22.8,4.0,-21.4,22.7,4.0,-21.4,5.73,1.85,-15.8,27.5
2015-04-07 01:26:00,0.0,1.92390,0.00024,405.939,0.087,0.1425,0.0019,140.001,44.997,32374.50730,1.92659,406.633,34.331,45.067,45.000,0.00,0.09,-272.72,-272.77,5,686,-4,22.8,4.0,-21.4,22.8,4.0,-21.4,5.73,1.82,-15.8,27.5
2015-04-07 01:27:00,0.0,1.92376,0.00045,406.023,0.110,0.1430,0.0020,139.998,44.997,32371.65057,1.92648,406.719,34.136,45.067,45.000,0.00,0.09,-272.71,-272.77,3,687,-4,22.8,4.0,-21.4,22.8,4.0,-21.5,5.73,1.70,-15.8,27.2
2015-04-07 01:28:00,0.0,1.92387,0.00043,406.044,0.080,0.1421,0.0013,140.000,44.997,32367.16116,1.92658,406.740,33.934,45.067,45.000,0.00,0.09,-272.72,-272.78,4,687,-4,22.8,4.0,-21.4,22.7,4.0,-21.4,5.73,2.00,-15.8,27.1
2015-04-07 01:29:00,0.0,1.92375,0.00039,406.370,0.142,0.1436,0.0022,139.997,44.996,32362.31404,1.92647,407.072,33.696,45.067,44.999,0.00,0.09,-272.71,-272.78,5,688,-4,22.8,4.0,-21.4,22.7,4.0,-21.4,5.73,1.66,-15.8,27.1
2015-04-07 01:30:00,0.0,1.92381,0.00039,406.508,0.189,0.1430,0.0015,139.999,44.997,32354.47103,1.92651,407.203,33.478,45.067,44.999,0.00,0.09,-272.71,-272.77,4,689,-4,22.7,4.0,-21.4,22.7,4.0,-21.4,5.73,1.77,-15.8,27.2
2015-04-07 01:31:00,0.0,1.92388,0.00031,406.689,0.104,0.1434,0.0016,139.999,44.996,32348.41093,1.92660,407.385,33.254,45.067,44.999,0.00,0.09,-272.72,-272.78,4,689,-4,22.7,4.0,-21.4,22.6,4.0,-21.5,5.73,1.99,-15.8,27.2
2015-04-07 01:32:00,0.0,1.92388,0.00046,406.747,0.122,0.1430,0.0015,140.000,44.996,32342.27862,1.92659,407.453,33.061,45.067,44.999,0.00,0.09,-272.72,-272.79,5,689,-4,22.6,4.0,-21.4,22.6,4.0,-21.5,5.73,1.64,-15.8,27.1
2015-04-07 01:33:00,0.0,1.92365,0.00028,406.271,0.371,0.1442,0.0021,140.002,44.996,32334.79275,1.92640,406.979,32.902,45.067,45.000,0.00,0.09,-272.72,-272.77,5,689,-4,22.6,4.0,-21.4,22.6,4.0,-21.5,5.73,1.83,-15.8,27.0
2015-04-07 01:34:00,0.0,1.92339,0.00042,406.554,0.342,0.1438,0.0020,139.999,44.997,32326.59715,1.92612,407.251,32.752,45.067,44.999,0.00,0.09,-272.73,-272.78,4,689,-4,22.6,4.1,-21.4,22.5,4.0,-21.4,5.73,1.94,-15.9,26.9
2015-04-07 01:35:00,0.0,1.92388,0.00048,407.063,0.125,0.1439,0.0013,139.998,44.997,32319.75571,1.92664,407.767,32.638,45.067,45.000,0.00,0.09,-272.73,-272.78,5,689,-4,22.6,4.1,-21.3,22.5,4.0,-21.5,5.73,1.62,-15.9,26.9
2015-04-07 01:36:00,0.0,1.92354,0.00050,406.862,0.238,0.1444,0.0019,140.000,44.998,32314.52517,1.92626,407.572,32.568,45.067,45.000,0.00,0.09,-272.72,-272.78,5,689,-4,22.6,4.1,-21.3,22.5,4.0,-21.5,5.73,2.01,-15.9,26.8
2015-04-07 01:37:00,0.0,1.92384,0.00035,406.977,0.106,0.1436,0.0020,140.003,44.998,32309.09788,1.92654,407.685,32.507,45.068,45.000,0.00,0.09,-272.72,-272.77,4,689,-4,22.5,4.1,-21.4,22.4,4.0,-21.5,5.73,1.64,-15.9,26.7
2015-04-07 01:38:00,0.0,1.92350,0.00047,406.714,0.192,0.1435,0.0015,139.996,44.999,32304.65233,1.92623,407.410,32.500,45.068,45.000,0.00,0.09,-272.73,-272.78,6,689,-4,22.5,4.1,-21.4,22.4,4.0,-21.5,5.73,1.98,-16.0,26.7
2015-04-07 01:39:00,0.0,1.92365,0.00027,407.385,0.066,0.1455,0.0017,139.999,44.999,32303.69835,1.92645,408.095,32.497,45.068,45.000,0.00,0.09,-272.72,-272.78,4,688,-3,22.4,4.1,-21.3,22.3,4.0,-21.6,5.73,1.65,-16.0,26.6
2015-04-07 01:40:00,0.0,1.92377,0.00042,407.470,0.124,0.1448,0.0014,139.998,44.999,32302.94777,1.92648,408.179,32.502,45.068,45.000,0.00,0.09,-272.72,-272.78,5,688,-3,22.3,4.1,-21.3,22.3,4.1,-21.6,5.73,2.00,-16.0,26.6
2015-04-07 01:41:00,0.0,1.92340,0.00042,406.837,0.303,0.1447,0.0014,139.999,45.000,32300.78818,1.92617,407.572,32.558,45.068,45.000,0.00,0.09,-272.72,-272.78,4,687,-4,22.3,4.1,-21.3,22.3,4.1,-21.6,5.73,1.64,-16.0,26.6
2015-04-07 01:42:00,0.0,1.92367,0.00036,406.690,0.137,0.1441,0.0019,140.002,45.001,32301.30615,1.92642,407.388,32.656,45.068,45.001,0.00,0.09,-272.73,-272.79,6,688,-3,22.3,4.1,-21.4,22.3,4.1,-21.5,5.73,1.96,-16.0,26.6
2015-04-07 01:43:00,0.0,1.92364,0.00035,406.768,0.134,0.1441,0.0014,140.004,45.001,32304.01995,1.92634,407.472,32.779,45.069,45.001,0.00,0.09,-272.72,-272.78,4,686,-3,22.3,4.1,-21.4,22.3,4.1,-21.5,5.73,1.79,-16.0,26.7
2015-04-07 01:44:00,0.0,1.92375,0.00035,407.117,0.145,0.1438,0.0018,140.001,45.002,32305.33340,1.92653,407.813,32.918,45.069,45.001,0.00,0.09,-272.72,-272.78,5,686,-4,22.3,4.1,-21.3,22.3,4.1,-21.5,5.73,1.73,-16.0,26.7
2015-04-07 01:45:00,0.0,1.92323,0.00065,407.443,0.187,0.1444,0.0013,139.998,45.002,32309.50435,1.92599,408.155,33.063,45.069,45.002,0.00,0.09,-272.73,-272.78,5,686,-3,22.3,4.1,-21.4,22.3,4.1,-21.5,5.73,1.99,-16.0,26.8
2015-04-07 01:46:00,0.0,1.92334,0.00038,407.218,0.081,0.1448,0.0019,139.997,45.003,32311.23438,1.92605,407.931,33.201,45.069,45.001,0.00,0.09,-272.72,-272.77,4,686,-4,22.3,4.1,-21.3,22.3,4.1,-21.5,5.73,1.71,-16.1,26.8